STARLINK-11712 [DTC] (64135 NORAD) Tracking and Keplerian Element Data

This shows tracking and keplerian element data for the satellite.

Feedback or suggestion? Click here.




ElementValue
Catalog64135
NameSTARLINK-11712 [DTC]
Epoch Orbit3403
Epoch Day353.56828098
Epoch Year2025
RAAN97.192
Inclination43.0007
Eccentricity0.0001697
Argument of Perigee271.0703
Mean Anonmoly88.997
Mean Motion15.7088216
Decay Rate0.00174878
L11 64135U 25111N 25353.56828098 .00174878 00000+0 13355-2 0 9996
L22 64135 43.0007 97.1920 0001697 271.0703 88.9970 15.70882160 34035



Live tracking and technical data element details for STARLINK-11712 [DTC] (NORAD 64135). STARLINK-11712 [DTC] can be tracked NOW for your location showing map with azimuth and elevation plus other details from your city location.







IsCatalogInMostPopularTable: catalog: 64135, numindb: 11
Update: records affected: 1



GetName: 64135 STARLINK-11712 [DTC]

Hit Count: updated at: Thu, 16 Apr 2026 06:56:41 GMT